Location: Caltech
(34.1382°N, 118.1253°W)
Time: 10:30:51
(UTC-07:00)

Cosmos 1937 Rocket - Visible Passes

Search period start: 29 April 2017 00:00
Search period end: 09 May 2017 00:00
Orbit: 746 x 781 km, 74.1° (Epoch: 27 April)

Date Brightness Start Highest point End Pass type
(mag) Time Alt. Az. Time Alt. Az. Time Alt. Az.
29 Apr 5.3 23:12:12 10° NNW 23:14:37 28° N 23:14:37 28° N visible
30 Apr 5.0 22:34:09 10° N 22:37:08 29° NNE 22:37:08 29° NNE visible
01 May 6.3 00:17:05 10° NW 00:17:18 11° NW 00:17:18 11° NW visible
01 May 5.1 21:56:30 10° NNE 21:59:39 22° NE 21:59:39 22° NE visible
01 May 5.7 23:37:52 10° NW 23:39:50 21° NW 23:39:50 21° NW visible
02 May 5.5 21:19:42 10° NNE 21:21:56 13° ENE 21:22:13 13° ENE visible
02 May 4.8 22:59:14 10° NNW 23:02:24 37° NW 23:02:24 37° NW visible
03 May 4.0 22:20:56 10° N 22:24:59 51° NNE 22:24:59 51° NNE visible
04 May 4.3 21:42:57 10° N 21:47:36 35° ENE 21:47:36 35° ENE visible
04 May 5.7 23:25:29 10° NW 23:27:47 19° WNW 23:27:47 19° WNW visible
05 May 5.0 21:05:26 10° NNE 21:09:11 20° ENE 21:10:15 19° E visible
05 May 4.6 22:46:27 10° NNW 22:50:26 38° WNW 22:50:26 38° WNW visible
06 May 5.6 20:29:17 10° NE 20:30:31 11° ENE 20:31:45 10° ENE visible
06 May 3.4 22:07:53 10° NNW 22:13:05 78° WSW 22:13:07 78° WSW visible
07 May 3.6 21:29:40 10° N 21:34:47 56° ENE 21:35:51 47° ESE visible
07 May 5.9 23:13:48 10° WNW 23:16:02 13° W 23:16:02 13° W visible
08 May 4.4 20:51:47 10° N 20:56:21 30° ENE 20:58:36 22° ESE visible
08 May 5.1 22:33:56 10° NW 22:38:06 25° W 22:38:48 24° WSW visible
